This is the latest recevied weather packets stored in our database for station/object N8HKU-5. If no packets are shown the sender has not sent any weather packets the latest 10 day(s).
| Time | Temp. | Humidity | Pressure | Rain* | Wind** | Luminosity | Snow |
|---|---|---|---|---|---|---|---|
| 1778165554 | 11.11° C | 51% | 1010.5 hPa | 0 mm | - | - | - |
| 1778164953 | 11.11° C | 56% | 1010.5 hPa | 0 mm | - | - | - |
| 1778164353 | 10.56° C | 55% | 1010.5 hPa | 0 mm | - | - | - |
| 1778163754 | 10.56° C | 56% | 1010.6 hPa | 0 mm | - | - | - |
| 1778163153 | 10° C | 53% | 1010.6 hPa | 0 mm | - | - | - |
| 1778162555 | 10° C | 55% | 1010.7 hPa | 0 mm | - | - | - |
| 1778161954 | 10° C | 57% | 1010.7 hPa | 0 mm | - | - | - |
| 1778161353 | 9.44° C | 58% | 1010.9 hPa | 0 mm | - | - | - |
| 1778160753 | 8.89° C | 59% | 1010.9 hPa | 0 mm | - | - | - |
| 1778160153 | 8.89° C | 61% | 1010.9 hPa | 0 mm | - | - | - |
| 1778159558 | 8.33° C | 62% | 1010.9 hPa | 0 mm | - | - | - |
| 1778158953 | 8.33° C | 63% | 1010.9 hPa | 0 mm | - | - | - |
| 1778158354 | 7.78° C | 68% | 1011 hPa | 0 mm | - | - | - |
| 1778157753 | 7.78° C | 65% | 1010.8 hPa | 0 mm | - | - | - |
| 1778157153 | 7.22° C | 67% | 1010.9 hPa | 0 mm | - | - | - |
| 1778156553 | 7.22° C | 69% | 1010.8 hPa | 0 mm | - | - | - |
| 1778155953 | 6.67° C | 71% | 1010.8 hPa | 0 mm | - | - | - |
| 1778155353 | 6.11° C | 74% | 1010.8 hPa | 0 mm | - | - | - |
| 1778154753 | 5° C | 83% | 1010.8 hPa | 0 mm | - | - | - |
| 1778154154 | 3.89° C | 88% | 1010.8 hPa | 0 mm | - | - | - |
| 1778153554 | 3.33° C | 89% | 1010.7 hPa | 0 mm | - | - | - |
| 1778152953 | 2.78° C | 89% | 1010.5 hPa | 0 mm | - | - | - |
| 1778152353 | 2.22° C | 89% | 1010.4 hPa | 0 mm | - | - | - |
| 1778151753 | 2.22° C | 90% | 1010.3 hPa | 0 mm | - | - | - |
| 1778150553 | 1.67° C | 90% | 1010.2 hPa | 0 mm | - | - | - |
* Rain latest hour (hover to see other rain measurements)
** Current wind speed in m/s (hover to see current wind gust speed)